Location: Bun Machan
(52.1403°N, 7.3744°W)
Time: 02:16:17
(UTC+00:00)

X-37B - Pass Details

Date: 22 June 2021
Orbit: 383 x 392 km, 45.0° (Epoch: 01 July)

Event Time Altitude Azimuth Distance (km) Brightness Sun altitude
Exits shadow 01:43:00 13° 146° (SE) 1,226 2.7 -12.8°
Drops below altitude 10° 01:43:36 10° 138° (SE) 1,404 3.1 -12.8°
Sets 01:45:59 0° 121° (ESE) 2,258 4.3 -12.7°
